www.pogodaiklimat.ru

Погода и климат >> Архив погоды >> Япония >> Мито


ПОГОДА в Мито

  • Прогноз погоды в Мито
  • Монитор погоды в Мито

АРХИВ ПОГОДЫ в Мито

Время (UTC), дата Ветер
(напр.,м/с)
 
Видим.   Явления Облачность Т
(С)
Тd
(С)
f
(%)
Тe
(С)
Тes
(С)
Комфортность P
(гПа)
Po
(гПа)
Тmin
(С)
Tmax
(С)
R
(мм)
R24
(мм)
S
(см)
13 12.08 ЮЗ 2 20 км н/о +27.8 +24.9 84 +40 +40 очень
душно
1008.7 1005.2
14 12.08 Ю 1 20 км н/о +27.6 +24.9 85 +39 +39 очень
душно
1008.7 1005.2
15 12.08 С 1 20 км н/о +26.3 +24.9 92 +38 +38 очень
душно
1008.3 1004.8
16 12.08 С 1 20 км н/о +25.9 +24.7 93 +37 +37 очень
душно
1007.6 1004.1
17 12.08 С 1 18 км н/о +25.6 +24.6 94 +36 +36 очень
душно
1007.1 1003.6
18 12.08 СЗ 2 16 км н/о +25.4 +24.5 95 +36 +36 очень
душно
1007.0 1003.5
19 12.08 С 1 15 км н/о +25.1 +24.4 96 +35 +35 очень
душно
1006.9 1003.4
20 12.08 СЗ 2 18 км н/о +25.0 +24.3 96 +35 +35 очень
душно
1007.1 1003.6
21 12.08 С 2 20 км н/о +25.6 +24.4 93 +36 +36 очень
душно
1007.5 1004.0
22 12.08 С 1 20 км н/о +27.2 +24.9 87 +39 +39 очень
душно
1007.4 1003.9
23 12.08 С 2 20 км н/о +28.8 +24.4 77 +40 +40 очень
душно
1007.1 1003.6
00 13.08 ЮВ 1 20 км н/о +30.2 +24.1 70 +42 +42 опасность
перегрева
1007.1 1003.6 +24.9
01 13.08 В 3 20 км н/о +30.2 +24.6 72 +43 +43 опасность
перегрева
1007.1 1003.6
02 13.08 В 3 20 км в посл. час дождь н/о +30.5 +24.9 72 +44 +44 опасность
перегрева
1007.1 1003.6
03 13.08 В 3 20 км в посл. час дождь н/о +31.6 +25.2 69 +46 +46 опасность
перегрева
1006.8 1003.3
04 13.08 В 3 20 км н/о +31.3 +24.7 68 +44 +44 опасность
перегрева
1006.4 1002.9
05 13.08 В 3 20 км н/о +31.6 +25.0 68 +45 +45 опасность
перегрева
1006.0 1002.6
06 13.08 В 3 20 км {дождь} н/о +31.8 +24.7 66 +45 +45 опасность
перегрева
1005.9 1002.5 0.0
07 13.08 ЮВ 4 20 км н/о +29.9 +24.3 72 +42 +42 опасность
перегрева
1006.2 1002.7
08 13.08 ЮВ 3 20 км н/о +30.7 +25.1 72 +44 +44 опасность
перегрева
1006.2 1002.7
09 13.08 В 3 20 км н/о +28.9 +25.5 82 +43 +43 опасность
перегрева
1006.2 1002.7
10 13.08 ЮВ 3 20 км н/о +28.0 +25.6 87 +41 +41 опасность
перегрева
1007.0 1003.5
11 13.08 В 2 17 км н/о +27.5 +25.7 90 +41 +41 опасность
перегрева
1008.0 1004.5
12 13.08 В 2 15 км н/о +27.5 +25.9 91 +41 +41 опасность
перегрева
1008.3 1004.8 +32.5 0.0
13 13.08 В 2 12 км н/о +27.2 +25.8 92 +40 +40 очень
душно
1008.4 1004.9
14 13.08 В 1 9000 м дымка н/о +26.8 +25.8 94 +40 +40 очень
душно
1008.3 1004.8
15 13.08 В 1 9000 м дымка н/о +26.7 +25.8 95 +40 +40 очень
душно
1008.0 1004.5
16 13.08 В 2 11 км н/о +26.7 +25.8 95 +40 +40 очень
душно
1007.6 1004.1
17 13.08 СВ 2 11 км в посл. час дождь н/о +26.8 +25.8 94 +40 +40 очень
душно
1007.4 1003.9
18 13.08 В 2 9000 м слаб. дождь н/о +26.6 +25.7 95 +39 +39 очень
душно
1007.3 1003.8 0.0
19 13.08 ЮВ 2 11 км слаб. дождь н/о +26.6 +25.9 96 +40 +40 очень
душно
1007.5 1004.0
20 13.08 В 2 9000 м в посл. час дождь н/о +26.3 +25.8 97 +39 +39 очень
душно
1007.4 1003.9
21 13.08 В 3 10 км {дождь} н/о +26.5 +25.8 96 +39 +39 очень
душно
1007.8 1004.3
22 13.08 В 3 10 км н/о +26.4 +25.4 94 +38 +38 очень
душно
1007.9 1004.4
23 13.08 СВ 3 4600 м в посл. час дождь н/о +26.3 +25.6 96 +39 +39 очень
душно
1008.1 1004.6
00 14.08 СВ 3 6000 м в посл. час дождь н/о +26.1 +25.4 96 +38 +38 очень
душно
1008.2 1004.7 +25.8 6
01 14.08 СВ 4 11 км слаб. дождь н/о +26.5 +24.9 91 +38 +38 очень
душно
1007.9 1004.4
02 14.08 В 3 20 км слаб. дождь н/о +27.4 +24.9 86 +39 +39 очень
душно
1007.5 1004.0
03 14.08 В 4 16 км в посл. час дождь н/о +27.9 +24.8 83 +40 +40 очень
душно
1007.3 1003.8
04 14.08 В 4 20 км н/о +28.1 +24.7 82 +40 +40 очень
душно
1006.9 1003.4
05 14.08 В 4 18 км н/о +28.8 +24.8 79 +41 +41 опасность
перегрева
1006.5 1003.0
06 14.08 В 4 20 км {дождь} н/о +27.7 +25.0 85 +40 +40 очень
душно
1006.3 1002.8 0.0
07 14.08 В 3 20 км в посл. час дождь н/о +26.8 +25.2 91 +39 +39 очень
душно
1006.7 1003.2
08 14.08 В 4 11 км н/о +26.4 +25.0 92 +38 +38 очень
душно
1006.5 1003.0
09 14.08 СВ 2 12 км {дождь} н/о +26.3 +24.9 92 +38 +38 очень
душно
1006.6 1003.1
10 14.08 В 2 10 км н/о +26.0 +25.0 94 +37 +37 очень
душно
1006.8 1003.3
11 14.08 В 3 9000 м дымка н/о +25.9 +25.0 95 +37 +37 очень
душно
1007.0 1003.5
12 14.08 В 2 7000 м дымка {дождь} н/о +25.9 +25.2 96 +37 +37 очень
душно
1007.1 1003.6 +29.0 0.0
13 14.08 В 2 7000 м дымка н/о +25.8 +25.1 96 +37 +37 очень
душно
1007.0 1003.5
14 14.08 В 2 6000 м дымка н/о +25.9 +25.4 97 +38 +38 очень
душно
1006.8 1003.3
15 14.08 В 2 7000 м дымка н/о +26.2 +25.5 96 +38 +38 очень
душно
1006.3 1002.8
16 14.08 В 1 9000 м дымка н/о +26.7 +25.8 95 +40 +40 очень
душно
1006.0 1002.5
17 14.08 Ю 2 10 км н/о +27.3 +26.1 93 +41 +41 опасность
перегрева
1005.7 1002.2
18 14.08 Ю 2 9000 м дымка н/о +27.5 +26.1 92 +41 +41 опасность
перегрева
1005.5 1002.0
20 14.08 Ю 2 7000 м дымка н/о +27.0 +26.0 94 +40 +40 очень
душно
1006.0 1002.5
21 14.08 Ю 2 9000 м дымка н/о +27.4 +25.8 91 +41 +41 опасность
перегрева
1006.2 1002.7
23 14.08 Ю 4 13 км н/о +29.9 +25.0 75 +43 +43 опасность
перегрева
1005.8 1002.3
00 15.08 Ю 3 16 км н/о +31.4 +24.5 67 +44 +44 опасность
перегрева
1005.5 1002.1 +25.8
01 15.08 Ю 4 20 км н/о +31.5 +24.1 65 +43 +43 опасность
перегрева
1005.0 1001.6
03 15.08 ЮВ 5 20 км н/о +32.1 +25.2 67 +46 +46 опасность
перегрева
1003.9 1000.5
04 15.08 ЮВ 5 17 км слаб. дождь н/о +31.5 +25.1 69 +45 +45 опасность
перегрева
1003.3 999.9
06 15.08 Ю 3 20 км {дождь} н/о +32.9 +24.4 61 +45 +45 опасность
перегрева
1001.9 998.5 0.0
08 15.08 Ю 4 20 км н/о +30.6 +24.7 71 +43 +43 опасность
перегрева
1001.6 998.2
09 15.08 Ю 5 20 км н/о +29.7 +24.6 74 +42 +42 опасность
перегрева
1001.7 998.2
10 15.08 Ю 3 18 км н/о +29.2 +25.0 78 +42 +42 опасность
перегрева
1001.9 998.4
11 15.08 Ю 3 17 км н/о +29.0 +25.0 79 +42 +42 опасность
перегрева
1002.0 998.5
12 15.08 Ю 4 17 км н/о +28.8 +24.8 79 +41 +41 опасность
перегрева
1001.9 998.4 +33.4 0.0
13 15.08 Ю 3 17 км н/о +28.6 +25.0 81 +41 +41 опасность
перегрева
1001.6 998.1
14 15.08 Ю 4 16 км н/о +28.4 +24.6 80 +40 +40 очень
душно
1000.9 997.4
15 15.08 Ю 4 15 км н/о +28.2 +24.6 81 +40 +40 очень
душно
1000.4 996.9
16 15.08 Ю 3 15 км н/о +28.2 +24.6 81 +40 +40 очень
душно
999.7 996.2
17 15.08 Ю 4 14 км н/о +28.1 +24.7 82 +40 +40 очень
душно
999.3 995.8
18 15.08 Ю 3 13 км н/о +28.2 +24.8 82 +40 +40 очень
душно
999.3 995.8
19 15.08 ЮВ 3 12 км н/о +28.2 +25.0 83 +41 +41 опасность
перегрева
999.1 995.6
20 15.08 Ю 2 12 км н/о +28.1 +24.9 83 +40 +40 очень
душно
999.1 995.6
21 15.08 Ю 4 15 км н/о +28.5 +23.6 75 +39 +39 очень
душно
999.2 995.7
22 15.08 Ю 4 13 км слаб. дождь н/о +28.4 +23.8 76 +39 +39 очень
душно
998.9 995.4
23 15.08 Ю 3 6000 м слаб. дождь н/о +28.1 +24.3 80 +39 +39 очень
душно
998.4 994.9
00 16.08 Ю 4 10 км слаб. дождь н/о +28.5 +24.5 79 +40 +40 очень
душно
998.7 995.2 +28.0 0.0
01 16.08 Ю 4 11 км в посл. час дождь н/о +29.1 +24.2 75 +41 +41 опасность
перегрева
998.3 994.8
02 16.08 Ю 6 10 км в посл. час дождь н/о +29.6 +24.3 73 +41 +41 опасность
перегрева
997.8 994.4
03 16.08 Ю 6 11 км слаб. дождь н/о +29.7 +24.1 72 +41 +41 опасность
перегрева
997.4 994.0
04 16.08 Ю 7 10 км в посл. час дождь н/о +29.6 +24.0 72 +41 +41 опасность
перегрева
996.9 993.5
05 16.08 Ю 6 11 км н/о +29.8 +24.2 72 +42 +42 опасность
перегрева
996.4 993.0
06 16.08 Ю 4 10 км {дождь} н/о +30.3 +24.2 70 +42 +42 опасность
перегрева
996.7 993.3 0.0
07 16.08 Ю 7 11 км н/о +30.2 +24.1 70 +42 +42 опасность
перегрева
996.6 993.2
08 16.08 Ю 5 11 км н/о +30.0 +24.4 72 +42 +42 опасность
перегрева
996.9 993.5
09 16.08 ЮЗ 5 12 км н/о +29.7 +24.1 72 +41 +41 опасность
перегрева
997.3 993.9
11 16.08 ЮЗ 4 12 км н/о +28.7 +23.8 75 +40 +40 очень
душно
998.7 995.2
12 16.08 ЮЗ 4 12 км н/о +28.4 +23.8 76 +39 +39 очень
душно
999.2 995.7 +31.0 0.0
13 16.08 ЮЗ 4 12 км н/о +28.2 +23.8 77 +39 +39 очень
душно
999.3 995.8
15 16.08 ЮЗ 2 11 км н/о +27.6 +23.8 80 +38 +38 очень
душно
999.2 995.7
16 16.08 ЮЗ 3 11 км н/о +27.3 +23.6 80 +37 +37 очень
душно
999.1 995.6
17 16.08 З 2 11 км н/о +27.1 +23.6 81 +37 +37 очень
душно
999.7 996.2
18 16.08 СЗ 1 7000 м дымка н/о +25.6 +23.8 90 +35 +35 очень
душно
1000.4 996.9
19 16.08 С 1 5000 м дымка н/о +25.0 +24.0 94 +34 +34 очень
душно
1000.7 997.2
20 16.08 СВ 1 6000 м дымка н/о +24.9 +23.9 94 +34 +34 очень
душно
1001.1 997.6
21 16.08 С 1 5000 м дымка н/о +25.1 +23.9 93 +34 +34 очень
душно
1001.7 998.2
22 16.08 С 2 8000 м дымка н/о +26.8 +24.1 85 +37 +37 очень
душно
1002.0 998.5
23 16.08 ЮЗ 2 12 км н/о +29.0 +23.7 73 +40 +40 очень
душно
1002.0 998.5
00 17.08 ЮЗ 2 15 км н/о +30.7 +23.6 66 +42 +42 опасность
перегрева
1002.0 998.6 +24.7
01 17.08 СВ 1 15 км н/о +31.7 +24.6 66 +44 +44 опасность
перегрева
1001.9 998.5
02 17.08 ЮЗ 2 18 км н/о +33.0 +23.3 57 +44 +44 опасность
перегрева
1001.8 998.4
03 17.08 Ю 2 19 км н/о +34.2 +22.6 51 +44 +44 опасность
перегрева
1001.4 998.0
04 17.08 Ю 2 20 км н/о +34.7 +22.4 49 +44 +44 опасность
перегрева
1001.0 997.6
05 17.08 В 3 16 км н/о +33.6 +25.0 61 +47 +47 опасность
перегрева
1000.7 997.3
06 17.08 В 3 15 км н/о +32.8 +24.6 62 +46 +46 опасность
перегрева
1000.7 997.3
07 17.08 В 4 14 км н/о +31.9 +24.2 64 +44 +44 опасность
перегрева
1001.2 997.8
08 17.08 В 3 15 км н/о +31.0 +23.9 66 +43 +43 опасность
перегрева
1001.5 998.1
09 17.08 В 2 14 км н/о +30.3 +23.7 68 +41 +41 опасность
перегрева
1002.1 998.6
10 17.08 СВ 2 12 км н/о +29.3 +24.2 74 +41 +41 опасность
перегрева
1003.0 999.5
12 17.08 В 2 10 км {дождь} н/о +28.7 +24.1 76 +40 +40 очень
душно
1004.3 1000.8 +35.7 0.0
13 17.08 В 1 10 км н/о +28.3 +23.9 77 +39 +39 очень
душно
1004.5 1001.0
14 17.08 В 2 10 км н/о +27.7 +23.9 80 +38 +38 очень
душно
1004.8 1001.3
15 17.08 СВ 1 8000 м дымка н/о +27.2 +24.1 83 +38 +38 очень
душно
1004.9 1001.4
16 17.08 СВ 1 8000 м дымка н/о +27.0 +23.9 83 +37 +37 очень
душно
1004.7 1001.2
18 17.08 СЗ 2 9000 м дымка н/о +26.1 +24.7 92 +37 +37 очень
душно
1005.2 1001.7
00 18.08 СВ 5 20 км н/о +30.6 +22.5 62 +40 +40 очень
душно
1008.0 1004.5 +25.3
06 18.08 В 5 20 км н/о +30.3 +20.6 56 +37 +37 очень
душно
1007.8 1004.3
12 18.08 СВ 2 13 км н/о +26.8 +23.1 80 +36 +36 очень
душно
1009.6 1006.1 +32.3
18 18.08 С 1 14 км {дождь} н/о +25.4 +22.5 84 +33 +33 очень
душно
1010.4 1006.9 0.0
00 19.08 СВ 5 20 км {дождь} н/о +27.1 +23.6 81 +37 +37 очень
душно
1012.5 1009.0 +25.3 0.0
06 19.08 СВ 3 18 км в посл. час дождь н/о +27.3 +22.7 76 +36 +36 очень
душно
1012.0 1008.5 0.0
09 19.08 СВ 4 16 км слаб. дождь н/о +25.5 +22.8 85 +34 +34 очень
душно
1012.3 1008.8
10 19.08 СВ 4 18 км в посл. час дождь н/о +25.3 +23.0 87 +34 +34 очень
душно
1012.9 1009.3
11 19.08 СВ 4 19 км н/о +25.4 +22.9 86 +34 +34 очень
душно
1013.4 1009.8
12 19.08 СВ 4 19 км слаб. дождь н/о +25.3 +23.0 87 +34 +34 очень
душно
1013.4 1009.8 +30.2 0.0

 

Местоположение метеостанции Мито (Япония): широта 36.38 долгота 140.46 высота над уровнем моря 31 м.

В архиве по умолчанию представлена погода в Мито за последнюю неделю. Архивные данные за месяц целиком и за предыдущие месяцы, начиная с января 2011 года, Вы можете получить, выбрав интересующий диапазон дат из раскрывающегося списка и нажав кнопку "Ввод!".


*Определитесь, кто Вы:
робот инопланетянин человек

Внимание! Время в таблицах - всемирное. Для получения местного времени необходимо прибавить поправку, которая равна 9 ч.

Смотрите также архив погоды в соседних городах и на ближайших метеорологических станциях:

Погода в Уцуномии (Япония) (57 км)
Погода в Онахаме (Япония) (75 км)
Погода в Тёси (Япония) (80 км)
Погода в Сиракаве (Япония) (86 км)
Погода в Тибе (Япония) (93 км)
Погода в Никко (Япония) (94 км)
Погода в Токио (Япония) (100 км)
Погода в Кумугае (Япония) (100 км)
Погода в Маебаши (Япония) (125 км)
Погода в Иокогаме (Япония) (128 км)

Пояснения к столбцам:

Ветер - указаны скорость ветра в м/с - средняя за 10 мин, порывы в срок и между сроками (в фигурных скобках) и направление, откуда дует ветер: С - северный, СВ - северо-восточный, В - восточный, ЮВ - юго-восточный, Ю - южный, ЮЗ - юго-западный, З - западный, СЗ - северо-западный.
Видимость - горизонтальная дальность видимости в метрах или километрах. При видимости от 1 до 10 км при отсутствии осадков обычно наблюдается дымка, при ухудшении видимости до 1 км и менее - туман. В сухую погоду видимость может ухудшаться дымом, пылью или мглою.
Явления - указаны атмосферные явления, наблюдавшиеся в срок или в последний час перед сроком; фигурными скобками обозначены явления, наблюдавшиеся между сроками (за 1-3 часа до срока); квадратными скобками обозначены град или гололедные отложения с указанием их диаметра в мм.
Облачность - указаны через наклонную черту общая и нижняя облачность в баллах и высота нижней границы облаков в метрах; квадратными скобками обозначены формы облаков: Ci - перистые, Cs - перисто-слоистые, Cc - перисто-кучевые, Ac - высококучевые, As - высокослоистые, Sc - слоисто-кучевые, Ns - слоисто-дождевые, Cu - кучевые, Cb - кучево-дождевые. Подробнее классификацию облаков см. в Атласе облаков (PDF).
T - Температура воздуха - температура, измеренная на высоте 2 м над землей.
Td - Температура точки росы - температура, при понижении до которой содержащийся в воздухе водяной пар достигнет насыщения.
f - Относительная влажность воздуха - влажноcть воздуха, измеренная на высоте 2 м над землей.
Te - Эффективная температура - температура, которую ощущает одетый по сезону человек в тени. Характеристика душности погоды. При расчете учитывается влияние влажности воздуха и скорости ветра на теплоощущения человека.
Tes - Эффективная температура на солнце - температура, которую ощущает человек, с поправкой на солнечный нагрев. Характеристика знойности погоды. Зависит от высоты солнца над горизонтом, облачности и скорости ветра. Ночью, в пасмурную погоду, а также при ветре 12 м/с и более поправка равна нулю.
P - Атмосферное давление - приведенное к уровню моря атмосферное давление.
Po - Атмосферное давление - измеренное на уровне метеостанции атмосферное давление.
Tmin - Минимальная температура - минимум температуры воздуха на высоте 2 м над землей.
Tmax - Максимальная температура - максимум температуры воздуха на высоте 2 м над землей.
R - Количество осадков - Количество выпавших осадков за период времени, мм. При наведении курсора мыши на число - период времени, за который выпало указанное количество осадков.
R24 - Количество осадков - Количество выпавших осадков за 24 часа, мм.
S - Снежный покров - Высота снежного покрова, см. При наведении курсора мыши на число - состояние снежного покрова и степень покрытия местности в баллах.